Date Time,Air Temp,Sky Temp,Clarity,Light Level,Rain Sensor,Readings
2013-02-25 00:00:30,9.8,-7.0,16.8,0.3,2.3,112
2013-02-25 00:05:30,9.8,-8.2,18.0,0.4,2.3,111
2013-02-25 00:10:30,10.7,-11.4,22.1,0.4,2.4,112
2013-02-25 00:15:30,13.2,-10.1,23.3,0.5,2.4,112
2013-02-25 00:20:30,14.0,-11.0,25.0,0.5,2.3,111
2013-02-25 00:25:30,14.3,-17.5,31.8,0.7,2.3,112
2013-02-25 00:30:30,14.5,-19.4,33.8,0.9,2.3,111
2013-02-25 00:35:30,14.5,-17.3,31.8,0.9,2.3,112
2013-02-25 00:40:30,14.4,-12.3,26.7,0.7,2.3,111
2013-02-25 00:45:30,14.2,-9.2,23.4,0.5,2.3,112
2013-02-25 00:50:30,14.2,-8.3,22.5,0.4,2.3,112
2013-02-25 00:55:30,14.3,-8.3,22.6,0.4,2.3,112
2013-02-25 01:00:30,14.3,-8.4,22.7,0.4,2.3,111
2013-02-25 01:05:30,14.3,-8.2,22.4,0.3,2.3,112
2013-02-25 01:10:30,14.4,-8.0,22.4,0.3,2.3,112
2013-02-25 01:15:30,14.3,-8.3,22.7,0.3,2.3,111
2013-02-25 01:20:30,14.3,-8.2,22.6,0.3,2.3,112
2013-02-25 01:25:30,14.4,-7.6,21.9,0.3,2.3,111
2013-02-25 01:30:30,14.5,-6.9,21.4,0.2,2.3,112
2013-02-25 01:35:30,14.5,-6.5,21.0,0.2,2.3,112
2013-02-25 01:40:30,14.4,-6.8,21.2,0.2,2.3,112
2013-02-25 01:45:30,14.4,-6.8,21.2,0.2,2.3,111
2013-02-25 01:50:30,14.4,-6.5,20.9,0.2,2.3,112
2013-02-25 01:55:30,14.4,-6.1,20.5,0.2,2.3,112
2013-02-25 02:00:30,12.2,-5.8,18.0,0.2,2.3,111
2013-02-25 02:05:30,10.6,-5.4,16.0,0.2,2.3,111
2013-02-25 02:10:30,10.0,-4.9,14.9,0.2,2.3,111
2013-02-25 02:15:30,9.8,-4.7,14.5,0.2,2.7,112
2013-02-25 02:20:30,9.7,-4.7,14.4,0.2,2.6,112
2013-02-25 02:25:30,9.8,-4.2,13.9,0.2,2.5,112
2013-02-25 02:30:30,9.8,-3.8,13.6,0.1,2.4,111
2013-02-25 02:35:30,9.7,-3.8,13.6,0.1,2.3,112
2013-02-25 02:40:30,9.7,-4.3,14.0,0.2,2.3,112
2013-02-25 02:45:30,9.6,-4.5,14.2,0.2,2.3,112
2013-02-25 02:50:30,9.7,-5.2,14.9,0.2,2.3,110
2013-02-25 02:55:30,9.7,-7.5,17.1,0.2,2.4,112
2013-02-25 03:00:30,9.7,-8.5,18.2,0.3,2.5,112
2013-02-25 03:05:30,11.4,-12.7,24.1,0.5,2.4,111
2013-02-25 03:10:30,13.5,-15.0,28.5,0.8,2.3,112
2013-02-25 03:15:30,14.1,-11.0,25.0,0.5,2.3,111
2013-02-25 03:20:30,14.4,-7.3,21.7,0.3,2.3,112
2013-02-25 03:25:30,13.7,-5.4,19.1,0.2,2.3,111
2013-02-25 03:30:30,11.3,-5.2,16.4,0.1,2.4,112
2013-02-25 03:35:30,10.5,-4.5,15.0,0.1,2.3,112
2013-02-25 03:40:30,10.3,-4.0,14.2,0.1,2.3,112
2013-02-25 03:45:30,10.2,-4.0,14.2,0.1,2.4,111
2013-02-25 03:50:30,10.1,-4.3,14.5,0.1,2.3,112
2013-02-25 03:55:30,10.1,-4.7,14.7,0.1,2.5,112
2013-02-25 04:00:30,10.0,-5.0,15.0,0.2,2.6,111
2013-02-25 04:05:30,10.0,-6.1,16.1,0.1,2.7,112
2013-02-25 04:10:30,11.9,-12.3,24.2,0.3,2.4,112
2013-02-25 04:15:30,13.6,-10.9,24.5,0.3,2.3,111
2013-02-25 04:20:30,14.0,-7.0,21.0,0.2,2.3,112
2013-02-25 04:25:30,13.5,-6.0,19.5,0.1,2.3,111
2013-02-25 04:30:30,11.2,-6.0,17.3,0.1,2.4,112
2013-02-25 04:35:30,10.3,-6.1,16.4,0.1,2.3,111
2013-02-25 04:40:30,10.3,-5.7,16.0,0.1,2.4,112
2013-02-25 04:45:30,10.2,-4.4,14.6,0.1,2.6,112
2013-02-25 04:50:30,10.2,-4.8,15.0,0.1,2.7,112
2013-02-25 04:55:30,10.2,-5.2,15.3,0.1,2.7,111
2013-02-25 05:00:30,10.2,-4.0,14.1,0.0,2.5,112
2013-02-25 05:05:30,10.2,-3.8,14.0,0.0,2.4,111
2013-02-25 05:10:30,10.2,-3.8,13.9,0.0,2.4,112
2013-02-25 05:15:30,10.2,-3.5,13.7,0.0,2.4,111
2013-02-25 05:20:30,10.2,-3.6,13.7,0.0,2.4,112
2013-02-25 05:25:30,10.2,-3.3,13.6,0.0,2.4,112
2013-02-25 05:30:30,10.2,-3.5,13.8,0.0,2.4,111
2013-02-25 05:35:30,10.2,-3.3,13.5,0.0,2.4,112
2013-02-25 05:40:30,10.2,-3.4,13.7,0.0,2.4,112
2013-02-25 05:45:30,10.3,-3.2,13.4,0.0,2.5,112
2013-02-25 05:50:30,10.3,-3.0,13.3,0.0,2.4,112
2013-02-25 05:55:30,10.2,-3.2,13.4,0.0,2.4,111
2013-02-25 06:00:30,10.2,-3.1,13.4,0.0,2.4,112
2013-02-25 06:05:30,10.3,-3.5,13.7,0.1,2.5,112
2013-02-25 06:10:30,10.3,-3.4,13.7,0.2,2.4,112
2013-02-25 06:15:30,10.3,-3.7,13.9,0.6,2.4,111
2013-02-25 06:20:30,10.3,-4.3,14.6,1.5,2.3,112
2013-02-25 06:25:30,10.3,-4.6,14.9,3.2,2.4,112
2013-02-25 06:30:30,10.3,-4.4,14.7,5.6,2.5,112
2013-02-25 06:35:30,10.3,-3.6,13.9,9.1,2.5,112
2013-02-25 06:40:30,10.4,-3.5,13.9,14.6,2.4,111
2013-02-25 06:45:30,10.4,-3.6,14.0,20.5,2.5,112
2013-02-25 06:50:30,10.4,-4.0,14.4,25.5,2.5,111
2013-02-25 06:55:30,10.4,-3.7,14.1,27.8,2.5,113
2013-02-25 07:00:30,10.4,-3.0,13.5,28.3,2.5,111
2013-02-25 07:05:30,10.5,-3.7,14.2,29.9,2.7,112
2013-02-25 07:10:30,10.5,-2.9,13.5,30.1,2.6,112
2013-02-25 07:15:30,10.6,-3.1,13.7,30.5,2.6,112
2013-02-25 07:20:30,10.6,-3.0,13.6,30.7,2.7,112
2013-02-25 07:25:30,10.6,-3.1,13.7,31.4,2.7,111
2013-02-25 07:30:30,10.7,-3.0,13.6,31.7,2.6,112
2013-02-25 07:35:30,10.8,-3.6,14.4,31.8,2.7,112
2013-02-25 07:40:30,10.8,-3.9,14.7,31.9,2.6,112
2013-02-25 07:45:30,10.8,-4.0,14.8,32.0,2.5,112
2013-02-25 07:50:30,10.8,-5.0,15.8,32.1,2.3,111
2013-02-25 07:55:30,10.8,-4.7,15.5,32.1,2.3,112
2013-02-25 08:00:30,10.8,-4.2,15.0,32.1,2.3,111
2013-02-25 08:05:30,10.9,-3.9,14.7,32.1,2.3,112
2013-02-25 08:10:30,10.9,-3.7,14.6,32.2,2.3,112
2013-02-25 08:15:30,11.0,-3.6,14.6,32.2,2.3,111
2013-02-25 08:20:30,11.1,-3.6,14.6,32.2,2.3,112
2013-02-25 08:25:30,11.1,-3.7,14.8,32.3,2.3,112
2013-02-25 08:30:30,11.1,-3.3,14.4,32.2,2.3,112
2013-02-25 08:35:30,11.2,-3.6,14.8,32.2,2.3,112
2013-02-25 08:40:30,11.2,-3.3,14.4,32.2,2.3,112
2013-02-25 08:45:30,11.2,-3.2,14.4,32.2,2.3,112
2013-02-25 08:50:30,11.2,-2.8,13.9,32.2,2.3,111
2013-02-25 08:55:30,11.2,-2.5,13.7,32.2,2.3,112
2013-02-25 09:00:30,11.3,-2.4,13.7,32.2,2.2,112
2013-02-25 09:05:30,11.3,-2.3,13.5,32.2,2.3,111
2013-02-25 09:10:30,11.3,-2.2,13.4,32.2,2.3,112
2013-02-25 09:15:30,11.3,-2.4,13.7,32.3,2.3,111
2013-02-25 09:20:30,11.3,-2.6,13.9,32.3,2.3,112
2013-02-25 09:25:30,11.3,-2.3,13.7,32.3,2.3,111
2013-02-25 09:30:30,11.4,-2.0,13.4,32.3,2.3,112
2013-02-25 09:35:30,11.4,-2.4,13.8,32.5,2.4,111
2013-02-25 09:40:30,11.7,-2.5,14.2,32.5,2.6,112
2013-02-25 09:45:30,11.8,-2.1,14.0,32.4,2.5,112
2013-02-25 09:50:30,11.9,-2.6,14.5,32.5,2.3,111
2013-02-25 09:55:30,11.9,-2.3,14.1,32.4,2.3,111
2013-02-25 10:00:30,12.0,-2.0,14.0,32.5,2.3,112
2013-02-25 10:05:30,12.2,-2.3,14.5,32.5,2.3,112
2013-02-25 10:10:30,12.4,-2.7,15.1,32.5,2.4,112
2013-02-25 10:15:30,12.6,-4.4,16.9,32.5,2.3,111
2013-02-25 10:20:30,12.7,-4.9,17.7,32.5,2.3,112
2013-02-25 10:25:30,13.3,-5.1,18.4,32.5,2.1,112
2013-02-25 10:30:30,13.5,-3.8,17.3,32.5,1.7,111
2013-02-25 10:35:30,13.4,-2.4,15.8,32.5,1.7,112
2013-02-25 10:40:30,13.1,-1.9,15.1,32.5,1.8,111
2013-02-25 10:45:30,12.9,-1.9,14.8,32.5,2.3,111
2013-02-25 10:50:30,12.7,-2.0,14.7,32.5,2.3,112
2013-02-25 10:55:30,12.6,-1.5,14.1,32.5,2.3,112
2013-02-25 11:00:30,12.5,-1.8,14.3,32.4,2.3,111
2013-02-25 11:05:30,12.4,-1.7,14.1,32.4,2.3,112
2013-02-25 11:10:30,12.3,-1.7,14.1,32.4,2.3,112
2013-02-25 11:15:30,12.2,-1.5,13.8,32.3,2.4,111
2013-02-25 11:20:30,12.2,-1.7,13.8,32.4,2.4,112
2013-02-25 11:25:30,12.2,-1.8,14.0,32.4,2.4,111
2013-02-25 11:30:30,12.2,-1.7,14.0,32.4,2.3,111
2013-02-25 11:35:31,12.3,-2.1,14.4,32.4,2.3,112
2013-02-25 11:40:31,12.2,-1.9,14.2,32.4,2.3,112
2013-02-25 11:45:31,12.2,-1.8,14.1,32.4,2.3,111
2013-02-25 11:50:31,12.2,-1.9,14.1,32.3,2.3,112
2013-02-25 11:55:31,12.1,-1.9,14.0,32.3,2.4,112
2013-02-25 12:00:31,12.0,-1.8,13.9,32.3,2.3,111
2013-02-25 12:05:31,11.9,-1.8,13.8,32.3,2.3,112
2013-02-25 12:10:31,11.9,-2.0,13.9,32.3,2.3,111
2013-02-25 12:15:31,11.9,-2.0,14.0,32.3,2.3,112
2013-02-25 12:20:31,12.0,-2.1,14.0,32.4,2.3,112
2013-02-25 12:25:31,12.1,-2.1,14.2,32.4,2.3,111
2013-02-25 12:30:31,12.2,-1.9,14.1,32.4,2.4,112
2013-02-25 12:35:31,12.3,-2.2,14.5,32.4,2.3,112
2013-02-25 12:40:31,12.2,-2.1,14.4,32.4,2.3,111
2013-02-25 12:45:31,12.2,-2.1,14.3,32.4,2.3,112
2013-02-25 12:50:31,12.2,-1.8,14.1,32.4,2.3,111
2013-02-25 12:55:31,12.4,-1.8,14.2,32.5,2.3,112
2013-02-25 13:00:31,12.6,-2.3,14.9,32.5,2.3,111
2013-02-25 13:05:31,12.7,-2.0,14.7,32.5,2.3,112
2013-02-25 13:10:31,12.7,-2.1,14.8,32.4,2.3,111
2013-02-25 13:15:31,12.6,-1.9,14.5,32.4,2.3,112
2013-02-25 13:20:31,12.5,-2.1,14.7,32.4,2.3,111
2013-02-25 13:25:31,12.5,-1.8,14.3,32.5,2.3,112
2013-02-25 13:30:31,12.6,-2.1,14.6,32.5,2.3,111
2013-02-25 13:35:31,12.6,-1.9,14.5,32.4,2.3,112
2013-02-25 13:40:31,12.6,-2.3,14.9,32.5,2.3,111
2013-02-25 13:45:31,12.6,-2.8,15.3,32.5,2.3,112
2013-02-25 13:50:31,12.7,-2.1,14.8,32.4,2.3,112
2013-02-25 13:55:31,12.6,-1.7,14.3,32.4,2.3,111
2013-02-25 14:00:31,12.5,-2.0,14.5,32.4,2.3,112
2013-02-25 14:05:31,12.4,-2.0,14.5,32.5,2.3,111
2013-02-25 14:10:31,12.7,-1.9,14.5,32.5,2.3,112
2013-02-25 14:15:31,12.7,-1.5,14.2,32.4,2.3,111
2013-02-25 14:20:31,12.6,-1.5,14.2,32.4,2.3,112
2013-02-25 14:25:31,12.5,-1.7,14.3,32.4,2.3,111
2013-02-25 14:30:31,12.4,-1.3,13.8,32.4,2.3,112
2013-02-25 14:35:31,12.4,-1.4,13.8,32.4,2.3,111
2013-02-25 14:40:31,12.3,-1.9,14.2,32.4,2.3,112
2013-02-25 14:45:31,12.2,-1.7,13.9,32.4,2.3,112
2013-02-25 14:50:31,12.2,-1.3,13.5,32.4,2.3,112
2013-02-25 14:55:31,12.2,-1.4,13.6,32.4,2.3,111
2013-02-25 15:00:31,12.2,-1.3,13.4,32.3,2.4,112
2013-02-25 15:05:31,12.1,-1.0,13.1,32.2,2.3,111
2013-02-25 15:10:31,12.1,-1.2,13.3,32.1,2.4,112
2013-02-25 15:15:31,12.0,-1.4,13.5,32.1,2.3,111
2013-02-25 15:20:31,12.0,-1.0,13.0,32.0,2.3,112
2013-02-25 15:25:31,12.0,-1.5,13.4,32.0,2.3,111
2013-02-25 15:30:31,11.9,-1.9,13.8,32.1,2.3,112
2013-02-25 15:35:31,11.9,-1.4,13.2,32.0,2.3,111
2013-02-25 15:40:31,11.6,-1.6,13.3,31.9,2.3,112
2013-02-25 15:45:31,11.8,-1.4,13.2,31.9,2.3,112
2013-02-25 15:50:31,11.7,-1.4,13.1,31.9,2.3,111
2013-02-25 15:55:31,11.7,-1.5,13.2,32.0,2.4,111
2013-02-25 16:00:31,11.8,-1.3,13.1,32.0,2.5,112
2013-02-25 16:05:31,11.8,-1.2,13.0,31.9,2.5,111
2013-02-25 16:10:31,11.8,-1.4,13.1,31.8,2.5,112
2013-02-25 16:15:31,11.8,-1.5,13.3,31.8,2.3,111
2013-02-25 16:20:31,11.7,-1.6,13.3,31.7,2.4,112
2013-02-25 16:25:31,11.7,-1.6,13.3,31.7,2.4,112
2013-02-25 16:30:31,11.6,-1.7,13.3,31.6,2.5,112
2013-02-25 16:35:31,11.6,-1.5,13.1,31.6,2.5,111
2013-02-25 16:40:31,11.6,-1.6,13.2,31.5,2.7,112
2013-02-25 16:45:31,11.6,-1.5,13.0,31.5,2.6,112
2013-02-25 16:50:31,11.6,-1.5,13.1,31.5,2.7,111
2013-02-25 16:55:31,11.6,-1.8,13.4,31.6,2.7,111
2013-02-25 17:00:31,11.6,-1.8,13.4,31.5,2.5,112
2013-02-25 17:05:31,11.6,-1.7,13.3,31.2,2.5,111
2013-02-25 17:10:31,11.6,-1.6,13.2,30.3,2.6,112
2013-02-25 17:15:31,11.6,-1.6,13.1,30.2,2.5,111
2013-02-25 17:20:31,11.6,-1.4,13.1,30.0,2.5,112
2013-02-25 17:25:31,11.6,-1.4,13.1,30.0,2.4,111
2013-02-25 17:30:31,11.7,-1.5,13.2,29.4,2.4,112
2013-02-25 17:35:31,11.7,-1.4,13.1,27.6,2.3,111
2013-02-25 17:40:31,11.8,-0.9,12.6,26.1,2.4,112
2013-02-25 17:45:31,11.8,-1.1,12.8,21.8,2.3,111
2013-02-25 17:50:31,11.6,-1.2,12.7,17.7,2.3,112
2013-02-25 17:55:31,11.8,-1.1,12.9,12.8,2.3,111
2013-02-25 18:00:31,11.8,-1.2,13.0,8.4,2.4,112
2013-02-25 18:05:31,11.8,-1.1,12.9,4.5,2.3,111
2013-02-25 18:10:31,11.8,-1.1,12.9,2.1,2.3,112
2013-02-25 18:15:31,11.8,-1.0,12.8,0.9,2.3,111
2013-02-25 18:20:31,11.8,-1.5,13.3,0.4,2.3,112
2013-02-25 18:25:31,11.8,-1.5,13.3,0.1,2.4,111
2013-02-25 18:30:31,11.8,-1.2,13.0,0.1,2.6,112
2013-02-25 18:35:31,11.9,-1.4,13.3,0.0,2.6,111
2013-02-25 18:40:31,11.9,-1.1,12.9,0.0,2.6,112
2013-02-25 18:45:31,11.9,-0.8,12.7,0.0,2.4,112
2013-02-25 18:50:31,11.9,-1.2,13.1,0.0,2.3,111
2013-02-25 18:55:31,11.9,-1.2,13.1,0.0,2.3,111
2013-02-25 19:00:31,11.8,-1.0,12.9,0.0,2.3,112
2013-02-25 19:05:31,11.8,-0.9,12.7,0.0,2.3,111
2013-02-25 19:10:31,11.8,-1.1,12.8,0.0,2.3,112
2013-02-25 19:15:31,11.8,-1.1,12.8,0.0,2.3,111
2013-02-25 19:20:31,11.7,-1.0,12.7,0.0,2.2,112
2013-02-25 19:25:31,11.7,-1.1,12.9,0.0,2.3,112
2013-02-25 19:30:31,11.7,-1.0,12.8,0.0,2.2,112
2013-02-25 19:35:31,11.7,-1.0,12.7,0.0,2.3,111
2013-02-25 19:40:31,11.7,-1.4,13.1,0.0,2.3,112
2013-02-25 19:45:31,11.7,-1.3,13.0,0.0,2.3,111
2013-02-25 19:50:31,11.7,-1.2,12.9,0.0,2.3,112
2013-02-25 19:55:31,11.7,-1.0,12.6,0.0,2.3,111
2013-02-25 20:00:31,11.7,-0.9,12.6,0.0,2.3,112
2013-02-25 20:05:31,11.7,-1.0,12.7,0.0,2.3,111
2013-02-25 20:10:31,11.7,-1.0,12.7,0.0,2.3,112
2013-02-25 20:15:31,11.7,-1.1,12.8,0.0,2.3,112
2013-02-25 20:20:31,11.4,-1.3,12.7,0.0,2.3,111
2013-02-25 20:25:31,11.6,-1.3,13.0,0.0,2.3,112
2013-02-25 20:30:31,11.6,-1.5,13.1,0.0,2.3,112
2013-02-25 20:35:31,11.7,-1.2,12.9,0.0,2.3,111
2013-02-25 20:40:31,11.6,-1.6,13.3,0.0,2.3,112
2013-02-25 20:45:31,11.6,-1.4,13.0,0.0,2.3,112
2013-02-25 20:50:31,11.6,-1.6,13.2,0.0,2.3,111
2013-02-25 20:55:31,11.6,-1.1,12.7,0.1,2.3,112
2013-02-25 21:00:31,11.6,-1.3,12.9,0.0,2.3,111
2013-02-25 21:05:31,11.6,-1.2,12.8,0.0,2.3,112
2013-02-25 21:10:31,11.6,-1.1,12.7,0.0,2.3,111
2013-02-25 21:15:31,11.6,-1.4,13.0,0.0,2.3,112
2013-02-25 21:20:31,11.6,-1.5,13.2,0.0,2.3,111
2013-02-25 21:25:31,11.6,-1.4,13.0,0.0,2.3,112
2013-02-25 21:30:31,11.6,-1.3,12.9,0.0,2.3,111
2013-02-25 21:35:31,11.7,-0.8,12.5,0.0,2.3,112
2013-02-25 21:40:31,11.8,-1.2,13.0,0.0,2.3,112
2013-02-25 21:45:31,11.8,-1.3,13.1,0.0,2.3,111
2013-02-25 21:50:31,11.8,-1.5,13.3,0.0,2.3,111
2013-02-25 21:55:31,11.8,-1.5,13.2,0.0,2.3,112
2013-02-25 22:00:31,11.8,-1.4,13.2,0.0,2.3,111
2013-02-25 22:05:31,11.8,-0.8,12.6,0.0,2.4,112
2013-02-25 22:10:31,11.8,-1.2,13.0,0.0,2.3,112
2013-02-25 22:15:31,11.8,-1.3,13.2,0.0,2.3,111
2013-02-25 22:20:31,11.8,-1.2,12.9,0.0,2.4,112
2013-02-25 22:25:31,11.7,-1.7,13.4,0.0,2.3,111
2013-02-25 22:30:31,11.7,-1.0,12.7,0.0,2.4,112
2013-02-25 22:35:31,11.7,-1.6,13.3,0.0,2.4,111
2013-02-25 22:40:31,11.7,-1.8,13.5,0.0,2.4,111
2013-02-25 22:45:31,11.7,-1.9,13.5,0.0,2.4,112
2013-02-25 22:50:31,11.7,-2.2,13.8,0.0,2.3,112
2013-02-25 22:55:31,11.7,-1.9,13.6,0.0,2.4,112
2013-02-25 23:00:31,11.7,-1.6,13.3,0.0,2.3,111
2013-02-25 23:05:31,11.7,-1.8,13.4,0.0,2.3,111
2013-02-25 23:10:31,11.6,-1.4,13.0,0.0,2.3,112
2013-02-25 23:15:31,11.6,-2.1,13.8,0.0,2.3,111
2013-02-25 23:20:31,11.6,-2.0,13.6,0.0,2.3,112
2013-02-25 23:25:31,11.6,-2.3,13.9,0.0,2.3,111
2013-02-25 23:30:31,11.5,-2.1,13.6,0.0,2.3,112
2013-02-25 23:35:31,11.5,-1.9,13.3,0.0,2.3,111
2013-02-25 23:40:31,11.4,-2.0,13.4,0.1,2.5,112
2013-02-25 23:45:31,11.4,-2.4,13.8,0.1,2.4,112
2013-02-25 23:50:31,11.4,-2.5,13.8,0.1,2.3,111
2013-02-25 23:55:31,11.4,-2.4,13.8,0.1,2.3,112
